• In Denmark
  • List of Countries
  • For 7 days
  • Water Temperature
  • Satellite Maps
  • Weather Map
  • Weather Widgets
  • user-avatar
    Login

    Hourly Weather Dzierlin

    Today, 22 August, Wednesday

    Time Temperature Precipitation Wind Pressure Humidity
    00:00 +18°C° 0 mm 1 mps 754 mmHg 64%
    01:00 +18°C° 0 mm 1 mps 754 mmHg 65%
    02:00 +18°C° 0 mm 1 mps 754 mmHg 67%
    03:00 +16°C° 0 mm 2 mps 754 mmHg 69%
    04:00 +16°C° 0 mm 2 mps 754 mmHg 70%
    05:00 +17°C° 0 mm 2 mps 754 mmHg 68%
    06:00 +18°C° 0 mm 2 mps 754 mmHg 66%
    07:00 +19°C° 0 mm 3 mps 754 mmHg 64%
    08:00 +20°C° 0 mm 3 mps 754 mmHg 59%
    09:00 +22°C° 0 mm 3 mps 754 mmHg 54%
    10:00 +25°C° 0 mm 3 mps 755 mmHg 49%
    11:00 +26°C° 0 mm 3 mps 754 mmHg 46%
    12:00 +26°C° 0 mm 3 mps 754 mmHg 43%
    13:00 +27°C° 0 mm 2 mps 753 mmHg 41%
    14:00 +27°C° 0 mm 2 mps 753 mmHg 40%
    15:00 +28°C° 0 mm 2 mps 753 mmHg 40%
    16:00 +28°C° 0 mm 2 mps 752 mmHg 39%
    17:00 +26°C° 0 mm 2 mps 752 mmHg 44%
    18:00 +25°C° 0 mm 2 mps 752 mmHg 48%
    19:00 +22°C° 0 mm 3 mps 752 mmHg 53%
    20:00 +22°C° 0 mm 3 mps 752 mmHg 55%
    21:00 +21°C° 0 mm 3 mps 752 mmHg 56%
    22:00 +20°C° 0 mm 3 mps 752 mmHg 58%
    23:00 +20°C° 0 mm 3 mps 752 mmHg 61%

    Tomorrow, 23 August, Thursday

    Time Temperature Precipitation Wind Pressure Humidity
    00:00 +19°C° 0 mm 3 mps 752 mmHg 63%
    01:00 +19°C° 0 mm 3 mps 752 mmHg 66%
    02:00 +19°C° 0 mm 3 mps 751 mmHg 69%
    03:00 +19°C° 0 mm 3 mps 751 mmHg 72%
    04:00 +18°C° 0 mm 3 mps 751 mmHg 75%
    05:00 +19°C° 0 mm 4 mps 751 mmHg 72%
    06:00 +20°C° 0 mm 4 mps 751 mmHg 70%
    07:00 +21°C° 0 mm 4 mps 750 mmHg 67%
    08:00 +23°C° 0 mm 4 mps 750 mmHg 62%
    09:00 +26°C° 0 mm 4 mps 750 mmHg 56%
    10:00 +28°C° 0 mm 4 mps 750 mmHg 50%
    11:00 +29°C° 0 mm 4 mps 750 mmHg 47%
    12:00 +30°C° 0 mm 3 mps 749 mmHg 44%
    13:00 +31°C° 0 mm 3 mps 749 mmHg 41%
    14:00 +31°C° 0 mm 3 mps 748 mmHg 42%
    15:00 +31°C° 0 mm 2 mps 748 mmHg 43%
    16:00 +31°C° 0 mm 2 mps 747 mmHg 43%
    17:00 +30°C° 0.1 mm 2 mps 747 mmHg 47%
    18:00 +29°C° 0.1 mm 2 mps 747 mmHg 50%
    19:00 +28°C° 0.1 mm 2 mps 747 mmHg 53%
    20:00 +27°C° 0.3 mm 2 mps 747 mmHg 55%
    21:00 +27°C° 0.3 mm 3 mps 747 mmHg 58%
    22:00 +26°C° 0.3 mm 3 mps 747 mmHg 60%
    23:00 +25°C° 0.2 mm 3 mps 747 mmHg 63%

    Day after tomorrow, 24 August, Friday

    Time Temperature Precipitation Wind Pressure Humidity
    00:00 +24°C° 0.2 mm 3 mps 747 mmHg 67%
    01:00 +24°C° 0.2 mm 3 mps 746 mmHg 70%
    02:00 +22°C° 0.2 mm 3 mps 746 mmHg 71%
    03:00 +22°C° 0.2 mm 3 mps 746 mmHg 72%
    04:00 +21°C° 0.2 mm 3 mps 745 mmHg 73%
    05:00 +22°C° 0.1 mm 4 mps 745 mmHg 69%
    06:00 +23°C° 0.1 mm 4 mps 745 mmHg 66%
    07:00 +25°C° 0.1 mm 4 mps 745 mmHg 63%
    08:00 +27°C° 0 mm 4 mps 745 mmHg 58%
    09:00 +28°C° 0 mm 5 mps 744 mmHg 52%
    10:00 +30°C° 0 mm 5 mps 744 mmHg 47%
    11:00 +32°C° 0 mm 5 mps 744 mmHg 45%
    12:00 +32°C° 0 mm 5 mps 744 mmHg 43%
    13:00 +33°C° 0 mm 5 mps 743 mmHg 41%
    14:00 +32°C° 0 mm 4 mps 743 mmHg 44%
    15:00 +30°C° 0 mm 4 mps 743 mmHg 48%
    16:00 +29°C° 0 mm 4 mps 743 mmHg 51%
    17:00 +27°C° 0.6 mm 3 mps 743 mmHg 58%
    18:00 +26°C° 0.6 mm 3 mps 743 mmHg 66%
    19:00 +24°C° 0.6 mm 3 mps 743 mmHg 73%
    20:00 +24°C° 2.1 mm 3 mps 743 mmHg 78%
    21:00 +23°C° 2.1 mm 2 mps 743 mmHg 82%
    22:00 +21°C° 2.1 mm 2 mps 743 mmHg 87%
    23:00 +21°C° 1.4 mm 2 mps 743 mmHg 87%

    25 August, Saturday

    Time Temperature Precipitation Wind Pressure Humidity
    00:00 +20°C° 1.4 mm 3 mps 744 mmHg 88%
    01:00 +20°C° 1.4 mm 3 mps 744 mmHg 88%
    02:00 +19°C° 0.5 mm 3 mps 744 mmHg 89%
    03:00 +19°C° 0.5 mm 3 mps 744 mmHg 90%
    04:00 +19°C° 0.5 mm 3 mps 744 mmHg 91%
    05:00 +19°C° 0.1 mm 3 mps 744 mmHg 90%
    06:00 +18°C° 0.1 mm 3 mps 745 mmHg 89%
    07:00 +18°C° 0.1 mm 3 mps 745 mmHg 88%
    08:00 +19°C° 0.2 mm 3 mps 745 mmHg 84%
    09:00 +19°C° 0.2 mm 3 mps 746 mmHg 80%
    10:00 +19°C° 0.2 mm 3 mps 746 mmHg 77%
    11:00 +20°C° 0.2 mm 3 mps 746 mmHg 73%
    12:00 +20°C° 0.2 mm 4 mps 746 mmHg 68%
    13:00 +20°C° 0.2 mm 4 mps 746 mmHg 64%
    14:00 +20°C° 0.1 mm 4 mps 746 mmHg 62%
    15:00 +20°C° 0.1 mm 4 mps 746 mmHg 60%
    16:00 +20°C° 0.1 mm 4 mps 747 mmHg 57%
    17:00 +19°C° 0.3 mm 4 mps 747 mmHg 62%
    18:00 +18°C° 0.3 mm 4 mps 747 mmHg 68%
    19:00 +16°C° 0.3 mm 3 mps 747 mmHg 73%
    20:00 +16°C° 0.1 mm 3 mps 747 mmHg 75%
    21:00 +14°C° 0.1 mm 3 mps 748 mmHg 77%
    22:00 +14°C° 0.1 mm 3 mps 748 mmHg 79%
    23:00 +14°C° 0 mm 3 mps 748 mmHg 79%

    26 August, Sunday

    Time Temperature Precipitation Wind Pressure Humidity
    00:00 +14°C° 0 mm 3 mps 748 mmHg 79%
    01:00 +14°C° 0 mm 3 mps 748 mmHg 79%
    02:00 +13°C° 0.1 mm 3 mps 748 mmHg 81%
    03:00 +13°C° 0.1 mm 3 mps 748 mmHg 82%
    04:00 +14°C° 0.1 mm 2 mps 748 mmHg 83%
    05:00 +14°C° 0.1 mm 2 mps 748 mmHg 81%
    06:00 +15°C° 0.1 mm 2 mps 748 mmHg 79%
    07:00 +15°C° 0.1 mm 2 mps 749 mmHg 77%
    08:00 +16°C° 0.1 mm 2 mps 749 mmHg 71%
    09:00 +17°C° 0.1 mm 2 mps 749 mmHg 66%
    10:00 +17°C° 0.1 mm 2 mps 749 mmHg 61%
    11:00 +19°C° 0.2 mm 1 mps 749 mmHg 59%
    12:00 +19°C° 0.2 mm 1 mps 749 mmHg 57%
    13:00 +19°C° 0.2 mm 1 mps 749 mmHg 55%
    14:00 +19°C° 0.1 mm 1 mps 749 mmHg 56%
    15:00 +19°C° 0.1 mm 1 mps 749 mmHg 57%
    16:00 +19°C° 0.1 mm 1 mps 749 mmHg 58%
    17:00 +17°C° 0.1 mm 2 mps 749 mmHg 62%
    18:00 +17°C° 0.1 mm 2 mps 750 mmHg 65%
    19:00 +16°C° 0.1 mm 2 mps 750 mmHg 68%
    20:00 +15°C° 0 mm 2 mps 750 mmHg 70%
    21:00 +14°C° 0 mm 2 mps 750 mmHg 72%
    22:00 +14°C° 0 mm 2 mps 751 mmHg 74%
    23:00 +13°C° 0 mm 2 mps 751 mmHg 75%

    27 August, Monday

    Time Temperature Precipitation Wind Pressure Humidity
    00:00 +13°C° 0 mm 2 mps 751 mmHg 75%
    01:00 +13°C° 0 mm 2 mps 751 mmHg 75%
    02:00 +12°C° 0 mm 2 mps 752 mmHg 76%
    03:00 +12°C° 0 mm 2 mps 752 mmHg 77%
    04:00 +12°C° 0 mm 2 mps 752 mmHg 77%
    05:00 +13°C° 0 mm 2 mps 752 mmHg 76%
    06:00 +14°C° 0 mm 2 mps 753 mmHg 74%
    07:00 +15°C° 0 mm 2 mps 753 mmHg 72%
    08:00 +16°C° 0 mm 2 mps 753 mmHg 65%
    09:00 +18°C° 0 mm 2 mps 753 mmHg 58%
    10:00 +19°C° 0 mm 3 mps 753 mmHg 50%
    11:00 +20°C° 0 mm 3 mps 753 mmHg 47%
    12:00 +21°C° 0 mm 3 mps 753 mmHg 43%
    13:00 +21°C° 0 mm 3 mps 753 mmHg 39%
    14:00 +21°C° 0 mm 3 mps 753 mmHg 39%
    15:00 +22°C° 0 mm 3 mps 753 mmHg 38%
    16:00 +23°C° 0 mm 2 mps 753 mmHg 38%
    17:00 +20°C° 0 mm 2 mps 753 mmHg 42%
    18:00 +19°C° 0 mm 2 mps 754 mmHg 45%
    19:00 +18°C° 0 mm 2 mps 754 mmHg 49%
    20:00 +18°C° 0 mm 1 mps 754 mmHg 51%
    21:00 +16°C° 0 mm 1 mps 754 mmHg 53%
    22:00 +16°C° 0 mm 1 mps 755 mmHg 55%
    23:00 +15°C° 0 mm 1 mps 755 mmHg 57%
    Show more